User: anonymous   Login
Location: Unspecified
(0.0000°N, 0.0000°E)
Time: 01:33:33
(UTC+00:00)
Language:

GAS SHIELD (DEBRIS) - Orbit

View from above orbital plane
View from above orbital plane
View from above satellite
View from above satellite

Ground track
Ground track

The orbit data is extracted from the following two-line orbital elements,

1 27612U 02058H   18324.11580941 -.00000018  00000-0  17283-4 0  9995
2 27612  64.5552 212.0951 0059823 277.6362  81.7951 14.79379316858212
Epoch (UTC): 20 November 2018 02:46:45
Eccentricity: 0.0059823
inclination: 64.5552°
perigee height: 589 km
apogee height: 673 km
right ascension of ascending node: 212.0951°
argument of perigee: 277.6362°
revolutions per day: 14.79379316
mean anomaly at epoch: 81.7951°
orbit number at epoch: 85821

The dashed part of the orbit path shows where the satellite is in the earth's shadow,  

DLR